Time,TemperatureF,DewpointF,PressureIn,WindDirection,WindDirectionDegrees,WindSpeedMPH,WindSpeedGustMPH,Humidity,HourlyPrecipIn,Conditions,Clouds,dailyrainin,SoftwareType,DateUTC
2013-01-15 00:01:00,11.4,9.3,30.45,SE,136,0.0,0.0,91,0.00,,---,0.00,VWS V14.01,2013-01-15 08:01:00,
2013-01-15 00:06:00,11.3,9.2,30.45,SE,136,0.0,0.0,91,0.00,,---,0.00,VWS V14.01,2013-01-15 08:06:00,
2013-01-15 00:11:00,11.2,9.1,30.45,SE,136,0.0,0.0,91,0.00,,---,0.00,VWS V14.01,2013-01-15 08:11:00,
2013-01-15 00:16:00,11.2,9.1,30.44,SE,136,0.0,0.0,91,0.00,,---,0.00,VWS V14.01,2013-01-15 08:16:00,
2013-01-15 00:21:00,11.1,9.0,30.44,SE,136,0.0,0.0,91,0.00,,---,0.00,VWS V14.01,2013-01-15 08:21:00,
2013-01-15 00:26:00,11.0,8.9,30.44,SE,136,0.0,0.0,91,0.00,,---,0.00,VWS V14.01,2013-01-15 08:26:00,
2013-01-15 00:31:00,10.8,8.7,30.44,SE,136,0.0,0.0,91,0.00,,---,0.00,VWS V14.01,2013-01-15 08:31:00,
2013-01-15 00:36:00,10.7,8.6,30.44,SE,136,0.0,0.0,91,0.00,,---,0.00,VWS V14.01,2013-01-15 08:36:00,
2013-01-15 00:41:00,10.6,8.2,30.44,SE,136,0.0,0.0,90,0.00,,---,0.00,VWS V14.01,2013-01-15 08:41:00,
2013-01-15 00:46:00,10.5,8.1,30.44,SE,136,0.0,0.0,90,0.00,,---,0.00,VWS V14.01,2013-01-15 08:46:00,
2013-01-15 00:51:00,10.3,8.0,30.44,SE,136,0.0,0.0,90,0.00,,---,0.00,VWS V14.01,2013-01-15 08:51:00,
2013-01-15 00:56:00,10.2,8.1,30.45,SE,136,0.0,0.0,91,0.00,,---,0.00,VWS V14.01,2013-01-15 08:56:00,
2013-01-15 01:01:00,10.1,8.0,30.45,SE,136,0.0,0.0,91,0.00,,---,0.00,VWS V14.01,2013-01-15 09:01:00,
2013-01-15 01:06:00,10.1,8.0,30.46,SE,136,0.0,0.0,91,0.00,,---,0.00,VWS V14.01,2013-01-15 09:06:00,
2013-01-15 01:11:00,10.1,8.0,30.47,SE,136,0.0,0.0,91,0.00,,---,0.00,VWS V14.01,2013-01-15 09:11:00,
2013-01-15 01:16:00,10.1,8.2,30.47,SE,136,0.0,0.0,92,0.00,,---,0.00,VWS V14.01,2013-01-15 09:16:00,
2013-01-15 01:21:00,10.2,8.3,30.47,SE,136,0.0,0.0,92,0.00,,---,0.00,VWS V14.01,2013-01-15 09:21:00,
2013-01-15 01:26:00,10.1,8.0,30.47,SE,136,0.0,0.0,91,0.00,,---,0.00,VWS V14.01,2013-01-15 09:26:00,
2013-01-15 01:31:00,10.1,8.0,30.47,SE,136,0.0,0.0,91,0.00,,---,0.00,VWS V14.01,2013-01-15 09:31:00,
2013-01-15 01:36:00,10.0,7.9,30.47,SE,136,0.0,0.0,91,0.00,,---,0.00,VWS V14.01,2013-01-15 09:36:00,
2013-01-15 01:41:00,10.0,7.9,30.47,SE,136,0.0,0.0,91,0.00,,---,0.00,VWS V14.01,2013-01-15 09:41:00,
2013-01-15 01:46:00,9.9,7.8,30.47,SE,136,0.0,0.0,91,0.00,,---,0.00,VWS V14.01,2013-01-15 09:46:00,
2013-01-15 01:51:00,9.9,7.8,30.48,SE,136,0.0,1.0,91,0.00,,---,0.00,VWS V14.01,2013-01-15 09:51:00,
2013-01-15 01:56:00,9.9,7.8,30.47,SE,136,0.0,1.0,91,0.00,,---,0.00,VWS V14.01,2013-01-15 09:56:00,
2013-01-15 02:01:00,9.9,7.8,30.48,SE,136,0.0,1.0,91,0.00,,---,0.00,VWS V14.01,2013-01-15 10:01:00,
2013-01-15 02:06:00,9.9,7.8,30.48,SE,136,0.0,1.0,91,0.00,,---,0.00,VWS V14.01,2013-01-15 10:06:00,
2013-01-15 02:11:00,9.8,7.7,30.47,SE,136,0.0,1.0,91,0.00,,---,0.00,VWS V14.01,2013-01-15 10:11:00,
2013-01-15 02:16:00,9.8,7.7,30.48,SE,136,0.0,1.0,91,0.00,,---,0.00,VWS V14.01,2013-01-15 10:16:00,
2013-01-15 02:21:00,9.8,7.7,30.48,SE,136,0.0,1.0,91,0.00,,---,0.00,VWS V14.01,2013-01-15 10:21:00,
2013-01-15 02:26:00,9.7,7.6,30.48,SE,136,0.0,1.0,91,0.00,,---,0.00,VWS V14.01,2013-01-15 10:26:00,
2013-01-15 02:31:00,9.7,7.6,30.48,SE,136,0.0,1.0,91,0.00,,---,0.00,VWS V14.01,2013-01-15 10:31:00,
2013-01-15 02:36:00,9.7,7.6,30.48,SE,136,0.0,1.0,91,0.00,,---,0.00,VWS V14.01,2013-01-15 10:36:00,
2013-01-15 02:41:00,9.6,7.5,30.48,SE,136,0.0,1.0,91,0.00,,---,0.00,VWS V14.01,2013-01-15 10:41:00,
2013-01-15 02:46:00,9.6,7.5,30.48,SE,136,0.0,1.0,91,0.00,,---,0.00,VWS V14.01,2013-01-15 10:46:00,
2013-01-15 02:51:00,9.6,7.5,30.48,SE,136,0.0,1.0,91,0.00,,---,0.00,VWS V14.01,2013-01-15 10:51:00,
2013-01-15 02:56:00,9.6,7.5,30.48,SE,136,0.0,1.0,91,0.00,,---,0.00,VWS V14.01,2013-01-15 10:56:00,
2013-01-15 03:01:00,9.6,7.5,30.48,SE,136,0.0,1.0,91,0.00,,---,0.00,VWS V14.01,2013-01-15 11:01:00,
2013-01-15 03:06:00,9.7,7.8,30.48,SE,136,0.0,0.0,92,0.00,,---,0.00,VWS V14.01,2013-01-15 11:06:00,
2013-01-15 03:11:00,9.7,7.8,30.48,SE,136,0.0,0.0,92,0.00,,---,0.00,VWS V14.01,2013-01-15 11:11:00,
2013-01-15 03:16:00,9.7,7.8,30.48,SE,136,0.0,0.0,92,0.00,,---,0.00,VWS V14.01,2013-01-15 11:16:00,
2013-01-15 03:21:00,9.7,7.8,30.49,SE,136,0.0,0.0,92,0.00,,---,0.00,VWS V14.01,2013-01-15 11:21:00,
2013-01-15 03:26:00,9.8,7.9,30.48,SE,136,0.0,0.0,92,0.00,,---,0.00,VWS V14.01,2013-01-15 11:26:00,
2013-01-15 03:31:00,9.8,7.9,30.49,SE,136,2.0,2.0,92,0.00,,---,0.00,VWS V14.01,2013-01-15 11:31:00,
2013-01-15 03:36:00,10.1,8.2,30.49,SE,136,0.0,2.0,92,0.00,,---,0.00,VWS V14.01,2013-01-15 11:36:00,
2013-01-15 03:41:00,10.3,8.7,30.49,SE,136,0.0,2.0,93,0.00,,---,0.00,VWS V14.01,2013-01-15 11:41:00,
2013-01-15 03:46:00,10.6,9.0,30.49,SE,136,0.0,2.0,93,0.00,,---,0.00,VWS V14.01,2013-01-15 11:46:00,
2013-01-15 03:51:00,10.8,9.2,30.49,SE,136,0.0,2.0,93,0.00,,---,0.00,VWS V14.01,2013-01-15 11:51:00,
2013-01-15 03:56:00,11.0,9.4,30.49,SE,136,0.0,2.0,93,0.00,,---,0.00,VWS V14.01,2013-01-15 11:56:00,
2013-01-15 04:01:00,11.1,9.5,30.49,SE,136,0.0,2.0,93,0.00,,---,0.00,VWS V14.01,2013-01-15 12:01:00,
2013-01-15 04:06:00,11.3,9.7,30.49,SE,136,0.0,0.0,93,0.00,,---,0.00,VWS V14.01,2013-01-15 12:06:00,
2013-01-15 04:11:00,11.4,9.8,30.49,SE,136,0.0,0.0,93,0.00,,---,0.00,VWS V14.01,2013-01-15 12:11:00,
2013-01-15 04:16:00,11.6,10.0,30.49,SE,136,0.0,0.0,93,0.00,,---,0.00,VWS V14.01,2013-01-15 12:16:00,
2013-01-15 04:21:00,11.7,10.1,30.49,SE,136,0.0,0.0,93,0.00,,---,0.00,VWS V14.01,2013-01-15 12:21:00,
2013-01-15 04:26:00,11.9,10.5,30.49,SE,136,0.0,0.0,94,0.00,,---,0.00,VWS V14.01,2013-01-15 12:26:00,
2013-01-15 04:31:00,12.2,10.8,30.49,SE,136,0.0,0.0,94,0.00,,---,0.00,VWS V14.01,2013-01-15 12:31:00,
2013-01-15 04:36:00,12.3,10.9,30.49,SE,136,0.0,0.0,94,0.00,,---,0.00,VWS V14.01,2013-01-15 12:36:00,
2013-01-15 04:41:00,12.4,11.0,30.49,SE,136,0.0,0.0,94,0.00,,---,0.00,VWS V14.01,2013-01-15 12:41:00,
2013-01-15 04:46:00,12.6,11.2,30.48,SE,136,0.0,0.0,94,0.00,,---,0.00,VWS V14.01,2013-01-15 12:46:00,
2013-01-15 04:51:00,12.7,11.3,30.49,SE,136,0.0,0.0,94,0.00,,---,0.00,VWS V14.01,2013-01-15 12:51:00,
2013-01-15 04:56:00,12.8,11.4,30.49,SE,136,0.0,0.0,94,0.00,,---,0.00,VWS V14.01,2013-01-15 12:56:00,
2013-01-15 05:01:00,13.0,11.6,30.49,SE,136,0.0,0.0,94,0.00,,---,0.00,VWS V14.01,2013-01-15 13:01:00,
2013-01-15 05:06:00,13.1,11.7,30.49,SE,136,0.0,1.0,94,0.00,,---,0.00,VWS V14.01,2013-01-15 13:06:00,
2013-01-15 05:11:00,13.2,11.8,30.49,SE,136,0.0,1.0,94,0.00,,---,0.00,VWS V14.01,2013-01-15 13:11:00,
2013-01-15 05:16:00,13.2,11.8,30.49,SE,136,0.0,1.0,94,0.00,,---,0.00,VWS V14.01,2013-01-15 13:16:00,
2013-01-15 05:21:00,13.3,11.7,30.50,SE,136,0.0,1.0,93,0.00,,---,0.00,VWS V14.01,2013-01-15 13:21:00,
2013-01-15 05:26:00,13.3,11.7,30.50,SE,136,0.0,1.0,93,0.00,,---,0.00,VWS V14.01,2013-01-15 13:26:00,
2013-01-15 05:31:00,13.3,11.7,30.50,SE,136,0.0,1.0,93,0.00,,---,0.00,VWS V14.01,2013-01-15 13:31:00,
2013-01-15 05:36:00,13.3,11.7,30.50,SE,136,0.0,1.0,93,0.00,,---,0.00,VWS V14.01,2013-01-15 13:36:00,
2013-01-15 05:41:00,13.3,11.7,30.50,SE,136,0.0,1.0,93,0.00,,---,0.00,VWS V14.01,2013-01-15 13:41:00,
2013-01-15 05:46:00,13.4,11.8,30.50,SE,136,0.0,1.0,93,0.00,,---,0.00,VWS V14.01,2013-01-15 13:46:00,
2013-01-15 05:51:00,13.5,11.9,30.51,SE,136,0.0,1.0,93,0.00,,---,0.00,VWS V14.01,2013-01-15 13:51:00,
2013-01-15 05:56:00,13.6,12.0,30.51,SE,136,0.0,1.0,93,0.00,,---,0.00,VWS V14.01,2013-01-15 13:56:00,
2013-01-15 06:01:00,13.7,12.1,30.51,SE,136,0.0,1.0,93,0.00,,---,0.00,VWS V14.01,2013-01-15 14:01:00,
2013-01-15 06:06:00,13.9,12.2,30.51,SE,136,0.0,0.0,93,0.00,,---,0.00,VWS V14.01,2013-01-15 14:06:00,
2013-01-15 06:11:00,14.0,12.6,30.51,SE,136,0.0,0.0,94,0.00,,---,0.00,VWS V14.01,2013-01-15 14:11:00,
2013-01-15 06:16:00,14.1,12.7,30.51,SE,136,0.0,0.0,94,0.00,,---,0.00,VWS V14.01,2013-01-15 14:16:00,
2013-01-15 06:21:00,14.2,12.8,30.51,SE,136,0.0,0.0,94,0.00,,---,0.00,VWS V14.01,2013-01-15 14:21:00,
2013-01-15 06:26:00,14.4,13.0,30.51,SE,136,0.0,0.0,94,0.00,,---,0.00,VWS V14.01,2013-01-15 14:26:00,
2013-01-15 06:31:00,14.4,13.0,30.51,SE,136,0.0,0.0,94,0.00,,---,0.00,VWS V14.01,2013-01-15 14:31:00,
2013-01-15 06:36:00,14.5,13.1,30.51,SE,136,0.0,0.0,94,0.00,,---,0.00,VWS V14.01,2013-01-15 14:36:00,
2013-01-15 06:41:00,14.6,13.2,30.52,SE,136,0.0,1.0,94,0.00,,---,0.00,VWS V14.01,2013-01-15 14:41:00,
2013-01-15 06:46:00,14.7,13.3,30.52,SE,136,0.0,1.0,94,0.00,,---,0.00,VWS V14.01,2013-01-15 14:46:00,
2013-01-15 06:51:00,14.8,13.4,30.52,SE,136,0.0,1.0,94,0.00,,---,0.00,VWS V14.01,2013-01-15 14:51:00,
2013-01-15 06:56:00,14.9,13.5,30.52,SE,136,0.0,1.0,94,0.00,,---,0.00,VWS V14.01,2013-01-15 14:56:00,
2013-01-15 07:01:00,14.9,13.5,30.53,SE,136,0.0,1.0,94,0.00,,---,0.00,VWS V14.01,2013-01-15 15:01:00,
2013-01-15 07:06:00,15.0,13.6,30.53,SE,136,0.0,0.0,94,0.00,,---,0.00,VWS V14.01,2013-01-15 15:06:00,
2013-01-15 07:11:00,15.3,13.9,30.53,SE,136,0.0,1.0,94,0.00,,---,0.00,VWS V14.01,2013-01-15 15:11:00,
2013-01-15 07:16:00,15.4,14.0,30.53,SE,136,0.0,1.0,94,0.00,,---,0.00,VWS V14.01,2013-01-15 15:16:00,
2013-01-15 07:21:00,15.4,14.0,30.53,SE,136,0.0,1.0,94,0.00,,---,0.00,VWS V14.01,2013-01-15 15:21:00,
2013-01-15 07:26:00,15.5,14.1,30.53,SE,136,0.0,1.0,94,0.00,,---,0.00,VWS V14.01,2013-01-15 15:26:00,
2013-01-15 07:31:00,15.6,14.2,30.54,SE,136,0.0,1.0,94,0.00,,---,0.00,VWS V14.01,2013-01-15 15:31:00,
2013-01-15 07:36:00,15.7,14.3,30.54,SE,136,0.0,1.0,94,0.00,,---,0.00,VWS V14.01,2013-01-15 15:36:00,
2013-01-15 07:41:00,15.7,14.3,30.54,SE,136,0.0,1.0,94,0.00,,---,0.00,VWS V14.01,2013-01-15 15:41:00,
2013-01-15 07:46:00,15.8,14.4,30.54,SE,136,0.0,1.0,94,0.00,,---,0.00,VWS V14.01,2013-01-15 15:46:00,
2013-01-15 07:51:00,15.9,14.5,30.55,SE,136,0.0,1.0,94,0.00,,---,0.00,VWS V14.01,2013-01-15 15:51:00,
2013-01-15 07:56:00,16.1,14.7,30.55,SE,136,0.0,1.0,94,0.00,,---,0.00,VWS V14.01,2013-01-15 15:56:00,
2013-01-15 08:01:00,16.2,14.8,30.55,SE,136,0.0,1.0,94,0.00,,---,0.00,VWS V14.01,2013-01-15 16:01:00,
2013-01-15 08:06:00,16.2,14.8,30.55,SE,136,0.0,0.0,94,0.00,,---,0.00,VWS V14.01,2013-01-15 16:06:00,
2013-01-15 08:11:00,16.4,15.0,30.56,SE,136,0.0,0.0,94,0.00,,---,0.00,VWS V14.01,2013-01-15 16:11:00,
2013-01-15 08:16:00,16.5,15.1,30.56,SE,136,0.0,0.0,94,0.00,,---,0.00,VWS V14.01,2013-01-15 16:16:00,
2013-01-15 08:21:00,16.7,15.3,30.57,SE,136,0.0,0.0,94,0.00,,---,0.00,VWS V14.01,2013-01-15 16:21:00,
2013-01-15 08:26:00,16.8,15.4,30.57,SE,136,0.0,0.0,94,0.00,,---,0.00,VWS V14.01,2013-01-15 16:26:00,
2013-01-15 08:31:00,17.0,15.6,30.57,SE,136,0.0,0.0,94,0.00,,---,0.00,VWS V14.01,2013-01-15 16:31:00,
2013-01-15 08:36:00,17.2,15.8,30.57,SE,136,0.0,2.0,94,0.00,,---,0.00,VWS V14.01,2013-01-15 16:36:00,
2013-01-15 08:41:00,17.4,16.0,30.57,SE,136,0.0,2.0,94,0.00,,---,0.00,VWS V14.01,2013-01-15 16:41:00,
2013-01-15 08:46:00,17.7,16.3,30.57,SE,136,0.0,2.0,94,0.00,,---,0.00,VWS V14.01,2013-01-15 16:46:00,
2013-01-15 08:51:00,17.9,16.5,30.57,SE,136,0.0,2.0,94,0.00,,---,0.00,VWS V14.01,2013-01-15 16:51:00,
2013-01-15 08:56:00,18.2,17.0,30.57,SE,136,0.0,2.0,95,0.00,,---,0.00,VWS V14.01,2013-01-15 16:56:00,
2013-01-15 09:01:00,18.6,17.4,30.57,SE,136,0.0,2.0,95,0.00,,---,0.00,VWS V14.01,2013-01-15 17:01:00,
2013-01-15 09:06:00,19.0,17.8,30.57,SE,136,0.0,0.0,95,0.00,,---,0.00,VWS V14.01,2013-01-15 17:06:00,
2013-01-15 09:11:00,19.4,18.2,30.57,SE,136,0.0,0.0,95,0.00,,---,0.00,VWS V14.01,2013-01-15 17:11:00,
2013-01-15 09:16:00,19.9,18.7,30.57,SE,136,0.0,0.0,95,0.00,,---,0.00,VWS V14.01,2013-01-15 17:16:00,
2013-01-15 09:21:00,20.5,19.3,30.56,SE,136,0.0,0.0,95,0.00,,---,0.00,VWS V14.01,2013-01-15 17:21:00,
2013-01-15 09:26:00,20.7,19.5,30.56,SE,136,0.0,0.0,95,0.00,,---,0.00,VWS V14.01,2013-01-15 17:26:00,
2013-01-15 09:31:00,21.0,19.8,30.57,SE,136,0.0,0.0,95,0.00,,---,0.00,VWS V14.01,2013-01-15 17:31:00,
2013-01-15 09:36:00,21.4,20.2,30.57,SE,136,0.0,1.0,95,0.00,,---,0.00,VWS V14.01,2013-01-15 17:36:00,
2013-01-15 09:41:00,21.8,20.6,30.57,SE,136,0.0,1.0,95,0.00,,---,0.00,VWS V14.01,2013-01-15 17:41:00,
2013-01-15 09:46:00,22.1,20.9,30.58,SE,136,0.0,1.0,95,0.00,,---,0.00,VWS V14.01,2013-01-15 17:46:00,
2013-01-15 09:51:00,22.2,21.0,30.59,SE,136,0.0,2.0,95,0.00,,---,0.00,VWS V14.01,2013-01-15 17:51:00,
2013-01-15 09:56:00,22.3,20.8,30.59,SE,136,0.0,2.0,94,0.00,,---,0.00,VWS V14.01,2013-01-15 17:56:00,
2013-01-15 10:01:00,22.7,21.2,30.59,SE,136,0.0,2.0,94,0.00,,---,0.00,VWS V14.01,2013-01-15 18:01:00,
2013-01-15 10:06:00,23.0,21.5,30.59,SE,136,0.0,2.0,94,0.00,,---,0.00,VWS V14.01,2013-01-15 18:06:00,
2013-01-15 10:11:00,23.3,21.8,30.59,SE,136,1.0,2.0,94,0.00,,---,0.00,VWS V14.01,2013-01-15 18:11:00,
2013-01-15 10:16:00,23.6,21.9,30.59,SE,136,0.0,4.0,93,0.00,,---,0.00,VWS V14.01,2013-01-15 18:16:00,
2013-01-15 10:21:00,23.9,22.2,30.59,SE,136,0.0,4.0,93,0.00,,---,0.00,VWS V14.01,2013-01-15 18:21:00,
2013-01-15 10:26:00,24.0,22.3,30.59,SE,136,0.0,4.0,93,0.00,,---,0.00,VWS V14.01,2013-01-15 18:26:00,
2013-01-15 10:31:00,24.1,22.1,30.58,SW,227,1.0,4.0,92,0.00,,---,0.00,VWS V14.01,2013-01-15 18:31:00,
2013-01-15 10:36:00,24.3,22.3,30.58,SW,227,1.0,4.0,92,0.00,,---,0.00,VWS V14.01,2013-01-15 18:36:00,
2013-01-15 10:41:00,24.5,22.5,30.58,SW,221,2.0,5.0,92,0.00,,---,0.00,VWS V14.01,2013-01-15 18:41:00,
2013-01-15 10:46:00,24.8,22.5,30.59,SW,221,0.0,5.0,91,0.00,,---,0.00,VWS V14.01,2013-01-15 18:46:00,
2013-01-15 10:51:00,24.8,22.5,30.59,SW,221,0.0,5.0,91,0.00,,---,0.00,VWS V14.01,2013-01-15 18:51:00,
2013-01-15 10:56:00,25.0,22.8,30.59,SW,217,0.0,5.0,91,0.00,,---,0.00,VWS V14.01,2013-01-15 18:56:00,
2013-01-15 11:01:00,25.3,22.8,30.59,SW,217,0.0,5.0,90,0.00,,---,0.00,VWS V14.01,2013-01-15 19:01:00,
2013-01-15 11:06:00,25.3,22.8,30.58,SSW,192,3.0,5.0,90,0.00,,---,0.00,VWS V14.01,2013-01-15 19:06:00,
2013-01-15 11:11:00,25.1,22.6,30.59,ESE,109,1.0,5.0,90,0.00,,---,0.00,VWS V14.01,2013-01-15 19:11:00,
2013-01-15 11:16:00,25.3,22.8,30.58,ESE,109,0.0,5.0,90,0.00,,---,0.00,VWS V14.01,2013-01-15 19:16:00,
2013-01-15 11:21:00,25.6,22.8,30.59,SSW,211,2.0,5.0,89,0.00,,---,0.00,VWS V14.01,2013-01-15 19:21:00,
2013-01-15 11:26:00,25.6,23.1,30.59,SSW,192,1.0,5.0,90,0.00,,---,0.00,VWS V14.01,2013-01-15 19:26:00,
2013-01-15 11:31:00,25.6,23.1,30.59,SSE,166,1.0,5.0,90,0.00,,---,0.00,VWS V14.01,2013-01-15 19:31:00,
2013-01-15 11:36:00,25.8,23.3,30.58,South,184,4.0,5.0,90,0.00,,---,0.00,VWS V14.01,2013-01-15 19:36:00,
2013-01-15 11:41:00,26.1,23.6,30.58,South,182,3.0,5.0,90,0.00,,---,0.00,VWS V14.01,2013-01-15 19:41:00,
2013-01-15 11:46:00,26.4,23.9,30.58,South,182,1.0,5.0,90,0.00,,---,0.00,VWS V14.01,2013-01-15 19:46:00,
2013-01-15 11:51:00,26.7,23.9,30.58,South,182,0.0,5.0,89,0.00,,---,0.00,VWS V14.01,2013-01-15 19:51:00,
2013-01-15 11:56:00,26.9,24.1,30.58,SW,215,3.0,5.0,89,0.00,,---,0.00,VWS V14.01,2013-01-15 19:56:00,
2013-01-15 12:01:00,27.1,24.3,30.58,SW,228,0.0,5.0,89,0.00,,---,0.00,VWS V14.01,2013-01-15 20:01:00,
2013-01-15 12:06:00,27.2,24.4,30.58,SSE,153,0.0,4.0,89,0.00,,---,0.00,VWS V14.01,2013-01-15 20:06:00,
2013-01-15 12:11:00,27.3,24.5,30.58,South,180,0.0,4.0,89,0.00,,---,0.00,VWS V14.01,2013-01-15 20:11:00,
2013-01-15 12:16:00,27.3,24.5,30.58,South,180,3.0,4.0,89,0.00,,---,0.00,VWS V14.01,2013-01-15 20:16:00,
2013-01-15 12:21:00,27.4,24.6,30.58,South,180,0.0,4.0,89,0.00,,---,0.00,VWS V14.01,2013-01-15 20:21:00,
2013-01-15 12:26:00,27.4,24.6,30.57,SSW,203,4.0,6.0,89,0.00,,---,0.00,VWS V14.01,2013-01-15 20:26:00,
2013-01-15 12:31:00,27.3,24.8,30.57,South,172,2.0,8.0,90,0.00,,---,0.00,VWS V14.01,2013-01-15 20:31:00,
2013-01-15 12:36:00,27.4,24.9,30.57,South,191,2.0,8.0,90,0.00,,---,0.00,VWS V14.01,2013-01-15 20:36:00,
2013-01-15 12:41:00,27.6,25.1,30.57,SSW,198,2.0,8.0,90,0.00,,---,0.00,VWS V14.01,2013-01-15 20:41:00,
2013-01-15 12:46:00,27.6,25.1,30.57,South,178,2.0,8.0,90,0.00,,---,0.00,VWS V14.01,2013-01-15 20:46:00,
2013-01-15 12:51:00,27.5,25.0,30.57,SW,235,3.0,8.0,90,0.00,,---,0.00,VWS V14.01,2013-01-15 20:51:00,
2013-01-15 12:56:00,27.6,25.3,30.57,SSE,159,6.0,9.0,91,0.00,,---,0.00,VWS V14.01,2013-01-15 20:56:00,
2013-01-15 13:01:00,27.6,25.3,30.57,SE,146,2.0,9.0,91,0.00,,---,0.00,VWS V14.01,2013-01-15 21:01:00,
2013-01-15 13:06:00,27.6,25.3,30.57,ESE,103,1.0,5.0,91,0.00,,---,0.00,VWS V14.01,2013-01-15 21:06:00,
2013-01-15 13:11:00,27.9,25.6,30.57,South,183,4.0,5.0,91,0.00,,---,0.00,VWS V14.01,2013-01-15 21:11:00,
2013-01-15 13:16:00,27.9,25.4,30.57,SW,221,3.0,6.0,90,0.00,,---,0.00,VWS V14.01,2013-01-15 21:16:00,
2013-01-15 13:21:00,28.1,25.5,30.57,South,186,2.0,6.0,90,0.01,,---,0.01,VWS V14.01,2013-01-15 21:21:00,
2013-01-15 13:26:00,28.3,25.8,30.57,South,186,1.0,6.0,90,0.01,,---,0.01,VWS V14.01,2013-01-15 21:26:00,
2013-01-15 13:31:00,28.4,25.9,30.57,South,186,1.0,6.0,90,0.01,,---,0.01,VWS V14.01,2013-01-15 21:31:00,
2013-01-15 13:36:00,28.7,26.1,30.57,SE,144,1.0,6.0,90,0.01,,---,0.01,VWS V14.01,2013-01-15 21:36:00,
2013-01-15 13:41:00,28.6,25.8,30.57,South,180,3.0,6.0,89,0.01,,---,0.01,VWS V14.01,2013-01-15 21:41:00,
2013-01-15 13:46:00,28.3,25.8,30.57,SSW,203,4.0,6.0,90,0.01,,---,0.01,VWS V14.01,2013-01-15 21:46:00,
2013-01-15 13:51:00,28.4,25.9,30.57,SSW,201,1.0,6.0,90,0.02,,---,0.02,VWS V14.01,2013-01-15 21:51:00,
2013-01-15 13:56:00,28.6,26.0,30.57,SSE,153,1.0,6.0,90,0.02,,---,0.02,VWS V14.01,2013-01-15 21:56:00,
2013-01-15 14:01:00,28.6,26.0,30.57,SSE,153,1.0,6.0,90,0.02,,---,0.02,VWS V14.01,2013-01-15 22:01:00,
2013-01-15 14:06:00,28.7,26.1,30.57,SSE,155,1.0,5.0,90,0.02,,---,0.02,VWS V14.01,2013-01-15 22:06:00,
2013-01-15 14:11:00,28.7,26.1,30.57,SSW,205,1.0,5.0,90,0.02,,---,0.02,VWS V14.01,2013-01-15 22:11:00,
2013-01-15 14:16:00,28.3,25.8,30.57,SSW,202,2.0,5.0,90,0.02,,---,0.02,VWS V14.01,2013-01-15 22:16:00,
2013-01-15 14:21:00,28.4,26.1,30.58,South,171,1.0,5.0,91,0.02,,---,0.02,VWS V14.01,2013-01-15 22:21:00,
2013-01-15 14:26:00,28.4,26.1,30.58,SW,227,3.0,5.0,91,0.03,,---,0.03,VWS V14.01,2013-01-15 22:26:00,
2013-01-15 14:31:00,28.0,25.7,30.58,South,187,1.0,7.0,91,0.03,,---,0.03,VWS V14.01,2013-01-15 22:31:00,
2013-01-15 14:36:00,27.8,25.5,30.58,SSE,155,2.0,7.0,91,0.03,,---,0.03,VWS V14.01,2013-01-15 22:36:00,
2013-01-15 14:41:00,27.8,25.8,30.58,SSW,199,1.0,7.0,92,0.03,,---,0.03,VWS V14.01,2013-01-15 22:41:00,
2013-01-15 14:46:00,28.0,26.0,30.58,SSW,196,0.0,7.0,92,0.03,,---,0.03,VWS V14.01,2013-01-15 22:46:00,
2013-01-15 14:51:00,28.0,26.0,30.58,SSW,196,0.0,7.0,92,0.03,,---,0.03,VWS V14.01,2013-01-15 22:51:00,
2013-01-15 14:56:00,28.0,26.0,30.58,SSW,196,0.0,7.0,92,0.03,,---,0.03,VWS V14.01,2013-01-15 22:56:00,
2013-01-15 15:01:00,27.9,25.9,30.58,SSW,196,2.0,7.0,92,0.03,,---,0.03,VWS V14.01,2013-01-15 23:01:00,
2013-01-15 15:06:00,27.8,25.8,30.58,SE,140,0.0,4.0,92,0.01,,---,0.03,VWS V14.01,2013-01-15 23:06:00,
2013-01-15 15:11:00,27.9,25.9,30.58,SE,140,1.0,4.0,92,0.01,,---,0.03,VWS V14.01,2013-01-15 23:11:00,
2013-01-15 15:16:00,28.1,26.1,30.59,SSW,203,3.0,5.0,92,0.01,,---,0.03,VWS V14.01,2013-01-15 23:16:00,
2013-01-15 15:21:00,28.1,26.1,30.59,SSW,203,2.0,5.0,92,0.01,,---,0.03,VWS V14.01,2013-01-15 23:21:00,
2013-01-15 15:26:00,28.2,26.2,30.59,SW,229,0.0,5.0,92,0.01,,---,0.03,VWS V14.01,2013-01-15 23:26:00,
2013-01-15 15:31:00,28.3,26.3,30.58,SW,229,2.0,5.0,92,0.01,,---,0.03,VWS V14.01,2013-01-15 23:31:00,
2013-01-15 15:36:00,28.4,26.4,30.58,SW,221,2.0,5.0,92,0.01,,---,0.03,VWS V14.01,2013-01-15 23:36:00,
2013-01-15 15:41:00,28.5,26.5,30.58,SW,221,0.0,5.0,92,0.01,,---,0.03,VWS V14.01,2013-01-15 23:41:00,
2013-01-15 15:46:00,28.5,26.5,30.58,SW,221,0.0,5.0,92,0.01,,---,0.03,VWS V14.01,2013-01-15 23:46:00,
2013-01-15 15:51:00,28.5,26.5,30.58,SW,215,0.0,5.0,92,0.01,,---,0.03,VWS V14.01,2013-01-15 23:51:00,
2013-01-15 15:56:00,28.5,26.7,30.58,SSW,204,1.0,5.0,93,0.01,,---,0.03,VWS V14.01,2013-01-15 23:56:00,
2013-01-15 16:01:00,28.5,26.7,30.58,South,191,2.0,2.0,93,0.00,,---,0.03,VWS V14.01,2013-01-16 00:01:00,
2013-01-15 16:06:00,28.5,26.7,30.58,South,191,0.0,2.0,93,0.00,,---,0.03,VWS V14.01,2013-01-16 00:06:00,
2013-01-15 16:11:00,28.5,26.7,30.58,South,191,0.0,2.0,93,0.00,,---,0.03,VWS V14.01,2013-01-16 00:11:00,
2013-01-15 16:16:00,28.4,26.6,30.58,South,191,0.0,2.0,93,0.00,,---,0.03,VWS V14.01,2013-01-16 00:16:00,
2013-01-15 16:21:00,28.4,26.6,30.58,South,191,0.0,2.0,93,0.00,,---,0.03,VWS V14.01,2013-01-16 00:21:00,
2013-01-15 16:26:00,28.4,26.6,30.58,South,191,0.0,2.0,93,0.00,,---,0.03,VWS V14.01,2013-01-16 00:26:00,
2013-01-15 16:31:00,28.4,26.9,30.58,South,191,0.0,2.0,94,0.00,,---,0.03,VWS V14.01,2013-01-16 00:31:00,
2013-01-15 16:36:00,28.3,26.5,30.58,South,191,0.0,2.0,93,0.00,,---,0.03,VWS V14.01,2013-01-16 00:36:00,
2013-01-15 16:41:00,28.3,26.8,30.58,South,191,0.0,2.0,94,0.00,,---,0.03,VWS V14.01,2013-01-16 00:41:00,
2013-01-15 16:46:00,28.3,26.8,30.58,South,191,0.0,2.0,94,0.00,,---,0.03,VWS V14.01,2013-01-16 00:46:00,
2013-01-15 16:51:00,28.3,26.8,30.58,South,191,0.0,2.0,94,0.00,,---,0.03,VWS V14.01,2013-01-16 00:51:00,
2013-01-15 16:56:00,28.2,26.7,30.58,South,191,0.0,2.0,94,0.00,,---,0.03,VWS V14.01,2013-01-16 00:56:00,
2013-01-15 17:01:00,28.2,26.7,30.58,South,191,0.0,2.0,94,0.00,,---,0.03,VWS V14.01,2013-01-16 01:01:00,
2013-01-15 17:06:00,28.2,26.7,30.58,South,191,0.0,0.0,94,0.00,,---,0.03,VWS V14.01,2013-01-16 01:06:00,
2013-01-15 17:11:00,28.1,26.6,30.58,South,191,0.0,0.0,94,0.00,,---,0.03,VWS V14.01,2013-01-16 01:11:00,
2013-01-15 17:16:00,28.1,26.6,30.58,South,191,0.0,0.0,94,0.00,,---,0.03,VWS V14.01,2013-01-16 01:16:00,
2013-01-15 17:21:00,28.1,26.6,30.57,South,191,0.0,1.0,94,0.00,,---,0.03,VWS V14.01,2013-01-16 01:21:00,
2013-01-15 17:26:00,28.1,26.6,30.58,South,191,0.0,1.0,94,0.00,,---,0.03,VWS V14.01,2013-01-16 01:26:00,
2013-01-15 17:31:00,28.0,26.5,30.58,South,191,0.0,1.0,94,0.00,,---,0.03,VWS V14.01,2013-01-16 01:31:00,
2013-01-15 17:36:00,28.0,26.8,30.58,South,191,0.0,1.0,95,0.00,,---,0.03,VWS V14.01,2013-01-16 01:36:00,
2013-01-15 17:41:00,28.0,26.8,30.57,South,191,0.0,1.0,95,0.00,,---,0.03,VWS V14.01,2013-01-16 01:41:00,
2013-01-15 17:46:00,28.0,26.8,30.57,South,191,0.0,1.0,95,0.00,,---,0.03,VWS V14.01,2013-01-16 01:46:00,
2013-01-15 17:51:00,28.0,26.8,30.57,South,191,0.0,1.0,95,0.00,,---,0.03,VWS V14.01,2013-01-16 01:51:00,
2013-01-15 17:56:00,28.0,26.8,30.58,South,191,0.0,2.0,95,0.00,,---,0.03,VWS V14.01,2013-01-16 01:56:00,
2013-01-15 18:01:00,28.0,26.8,30.57,South,191,0.0,0.0,95,0.00,,---,0.03,VWS V14.01,2013-01-16 02:01:00,
2013-01-15 18:06:00,28.0,26.8,30.58,South,191,0.0,0.0,95,0.00,,---,0.03,VWS V14.01,2013-01-16 02:06:00,
2013-01-15 18:11:00,28.0,26.8,30.57,South,191,0.0,0.0,95,0.00,,---,0.03,VWS V14.01,2013-01-16 02:11:00,
2013-01-15 18:16:00,28.0,26.8,30.57,South,191,0.0,0.0,95,0.00,,---,0.03,VWS V14.01,2013-01-16 02:16:00,
2013-01-15 18:21:00,27.9,26.7,30.57,South,191,0.0,0.0,95,0.00,,---,0.03,VWS V14.01,2013-01-16 02:21:00,
2013-01-15 18:26:00,27.7,26.5,30.57,South,191,0.0,0.0,95,0.00,,---,0.03,VWS V14.01,2013-01-16 02:26:00,
2013-01-15 18:31:00,27.5,26.3,30.57,South,191,0.0,0.0,95,0.00,,---,0.03,VWS V14.01,2013-01-16 02:31:00,
2013-01-15 18:36:00,27.2,25.7,30.58,South,191,0.0,0.0,94,0.00,,---,0.03,VWS V14.01,2013-01-16 02:36:00,
2013-01-15 18:41:00,27.0,25.5,30.57,South,191,0.0,0.0,94,0.00,,---,0.03,VWS V14.01,2013-01-16 02:41:00,
2013-01-15 18:46:00,26.8,25.3,30.58,South,191,0.0,0.0,94,0.00,,---,0.03,VWS V14.01,2013-01-16 02:46:00,
2013-01-15 18:51:00,26.6,25.1,30.58,South,191,0.0,0.0,94,0.00,,---,0.03,VWS V14.01,2013-01-16 02:51:00,
2013-01-15 18:56:00,26.3,24.8,30.58,South,191,0.0,0.0,94,0.00,,---,0.03,VWS V14.01,2013-01-16 02:56:00,
2013-01-15 19:01:00,26.2,24.7,30.57,South,191,0.0,0.0,94,0.00,,---,0.03,VWS V14.01,2013-01-16 03:01:00,
2013-01-15 19:06:00,26.1,24.6,30.57,South,191,0.0,0.0,94,0.00,,---,0.03,VWS V14.01,2013-01-16 03:06:00,
2013-01-15 19:11:00,26.1,24.6,30.57,South,191,0.0,0.0,94,0.00,,---,0.03,VWS V14.01,2013-01-16 03:11:00,
2013-01-15 19:16:00,25.9,24.4,30.57,South,191,0.0,0.0,94,0.00,,---,0.03,VWS V14.01,2013-01-16 03:16:00,
2013-01-15 19:21:00,25.7,24.2,30.57,South,191,0.0,0.0,94,0.00,,---,0.03,VWS V14.01,2013-01-16 03:21:00,
2013-01-15 19:26:00,25.4,23.9,30.57,South,191,0.0,0.0,94,0.00,,---,0.03,VWS V14.01,2013-01-16 03:26:00,
2013-01-15 19:31:00,25.2,23.7,30.57,South,191,0.0,0.0,94,0.00,,---,0.03,VWS V14.01,2013-01-16 03:31:00,
2013-01-15 19:36:00,24.9,23.4,30.57,South,191,0.0,0.0,94,0.00,,---,0.03,VWS V14.01,2013-01-16 03:36:00,
2013-01-15 19:41:00,24.5,22.8,30.56,South,191,0.0,0.0,93,0.00,,---,0.03,VWS V14.01,2013-01-16 03:41:00,
2013-01-15 19:46:00,24.1,22.1,30.56,South,191,0.0,0.0,92,0.00,,---,0.03,VWS V14.01,2013-01-16 03:46:00,
2013-01-15 19:51:00,23.6,21.6,30.56,South,191,0.0,0.0,92,0.00,,---,0.03,VWS V14.01,2013-01-16 03:51:00,
2013-01-15 19:56:00,23.2,21.2,30.55,South,191,0.0,0.0,92,0.00,,---,0.03,VWS V14.01,2013-01-16 03:56:00,
2013-01-15 20:01:00,22.7,20.5,30.55,South,191,0.0,0.0,91,0.00,,---,0.03,VWS V14.01,2013-01-16 04:01:00,
2013-01-15 20:06:00,22.1,19.9,30.56,South,191,0.0,0.0,91,0.00,,---,0.03,VWS V14.01,2013-01-16 04:06:00,
2013-01-15 20:11:00,21.7,19.7,30.56,South,191,0.0,0.0,92,0.00,,---,0.03,VWS V14.01,2013-01-16 04:11:00,
2013-01-15 20:16:00,21.3,19.1,30.56,South,191,0.0,0.0,91,0.00,,---,0.03,VWS V14.01,2013-01-16 04:16:00,
2013-01-15 20:21:00,20.8,18.9,30.56,South,191,0.0,0.0,92,0.00,,---,0.03,VWS V14.01,2013-01-16 04:21:00,
2013-01-15 20:26:00,20.6,18.6,30.56,South,191,0.0,0.0,92,0.00,,---,0.03,VWS V14.01,2013-01-16 04:26:00,
2013-01-15 20:31:00,20.5,18.8,30.56,South,191,0.0,0.0,93,0.00,,---,0.03,VWS V14.01,2013-01-16 04:31:00,
2013-01-15 20:36:00,20.3,18.6,30.56,South,191,0.0,0.0,93,0.00,,---,0.03,VWS V14.01,2013-01-16 04:36:00,
2013-01-15 20:41:00,20.2,18.5,30.56,South,191,0.0,0.0,93,0.00,,---,0.03,VWS V14.01,2013-01-16 04:41:00,
2013-01-15 20:46:00,20.0,18.3,30.56,South,191,0.0,0.0,93,0.00,,---,0.03,VWS V14.01,2013-01-16 04:46:00,
2013-01-15 20:51:00,20.0,18.5,30.56,South,191,0.0,0.0,94,0.00,,---,0.03,VWS V14.01,2013-01-16 04:51:00,
2013-01-15 20:56:00,19.9,18.5,30.55,South,191,0.0,0.0,94,0.00,,---,0.03,VWS V14.01,2013-01-16 04:56:00,
2013-01-15 21:00:00,19.9,18.5,30.56,South,191,0.0,0.0,94,0.00,,---,0.03,VWS V14.01,2013-01-16 05:00:00,
2013-01-15 21:01:00,19.9,18.5,30.56,South,191,0.0,0.0,94,0.00,,---,0.03,VWS V14.01,2013-01-16 05:01:00,
2013-01-15 21:02:00,19.9,18.5,30.56,South,191,0.0,0.0,94,0.00,,---,0.03,VWS V14.01,2013-01-16 05:02:00,
2013-01-15 21:07:00,19.9,18.5,30.56,South,191,0.0,0.0,94,0.00,,---,0.03,VWS V14.01,2013-01-16 05:07:00,
2013-01-15 21:12:00,19.9,18.5,30.56,South,191,0.0,2.0,94,0.00,,---,0.03,VWS V14.01,2013-01-16 05:12:00,
2013-01-15 21:17:00,20.0,18.5,30.56,South,191,0.0,3.0,94,0.00,,---,0.03,VWS V14.01,2013-01-16 05:17:00,
2013-01-15 21:22:00,20.1,18.6,30.56,South,191,2.0,3.0,94,0.00,,---,0.03,VWS V14.01,2013-01-16 05:22:00,
2013-01-15 21:27:00,20.2,19.0,30.56,South,191,1.0,3.0,95,0.00,,---,0.03,VWS V14.01,2013-01-16 05:27:00,
2013-01-15 21:32:00,20.5,19.3,30.56,South,191,0.0,3.0,95,0.00,,---,0.03,VWS V14.01,2013-01-16 05:32:00,
2013-01-15 21:37:00,20.6,19.4,30.56,South,191,0.0,3.0,95,0.00,,---,0.03,VWS V14.01,2013-01-16 05:37:00,
2013-01-15 21:42:00,20.5,19.3,30.56,South,191,0.0,3.0,95,0.00,,---,0.03,VWS V14.01,2013-01-16 05:42:00,
2013-01-15 21:47:00,20.4,19.2,30.56,South,191,0.0,3.0,95,0.00,,---,0.03,VWS V14.01,2013-01-16 05:47:00,
2013-01-15 21:52:00,20.3,19.1,30.56,South,191,0.0,3.0,95,0.00,,---,0.03,VWS V14.01,2013-01-16 05:52:00,
2013-01-15 21:57:00,20.1,18.6,30.56,South,191,0.0,3.0,94,0.00,,---,0.03,VWS V14.01,2013-01-16 05:57:00,
2013-01-15 22:02:00,19.9,18.5,30.56,South,191,0.0,0.0,94,0.00,,---,0.03,VWS V14.01,2013-01-16 06:02:00,
2013-01-15 22:07:00,19.7,18.3,30.55,South,191,0.0,0.0,94,0.00,,---,0.03,VWS V14.01,2013-01-16 06:07:00,
2013-01-15 22:12:00,19.5,18.1,30.55,South,191,0.0,0.0,94,0.00,,---,0.03,VWS V14.01,2013-01-16 06:12:00,
2013-01-15 22:17:00,19.3,17.9,30.55,South,191,0.0,0.0,94,0.00,,---,0.03,VWS V14.01,2013-01-16 06:17:00,
2013-01-15 22:22:00,19.1,17.7,30.55,South,191,0.0,2.0,94,0.00,,---,0.03,VWS V14.01,2013-01-16 06:22:00,
2013-01-15 22:27:00,18.8,17.1,30.55,South,191,0.0,2.0,93,0.00,,---,0.03,VWS V14.01,2013-01-16 06:27:00,
2013-01-15 22:32:00,18.5,16.8,30.55,South,191,0.0,2.0,93,0.00,,---,0.03,VWS V14.01,2013-01-16 06:32:00,
2013-01-15 22:37:00,18.3,16.6,30.55,South,191,0.0,2.0,93,0.00,,---,0.03,VWS V14.01,2013-01-16 06:37:00,
2013-01-15 22:42:00,18.2,16.5,30.55,South,191,0.0,2.0,93,0.00,,---,0.03,VWS V14.01,2013-01-16 06:42:00,
2013-01-15 22:47:00,18.0,16.3,30.55,South,191,0.0,2.0,93,0.00,,---,0.03,VWS V14.01,2013-01-16 06:47:00,
2013-01-15 22:52:00,17.8,16.1,30.55,North,360,3.0,3.0,93,0.00,,---,0.03,VWS V14.01,2013-01-16 06:52:00,
2013-01-15 22:57:00,17.7,16.3,30.55,East,89,0.0,5.0,94,0.00,,---,0.03,VWS V14.01,2013-01-16 06:57:00,
2013-01-15 23:02:00,17.8,16.4,30.55,East,89,0.0,0.0,94,0.00,,---,0.03,VWS V14.01,2013-01-16 07:02:00,
2013-01-15 23:07:00,17.7,16.3,30.54,East,89,0.0,0.0,94,0.00,,---,0.03,VWS V14.01,2013-01-16 07:07:00,
2013-01-15 23:12:00,17.5,16.1,30.54,East,89,0.0,0.0,94,0.00,,---,0.03,VWS V14.01,2013-01-16 07:12:00,
2013-01-15 23:17:00,17.1,15.4,30.55,East,89,0.0,0.0,93,0.00,,---,0.03,VWS V14.01,2013-01-16 07:17:00,
2013-01-15 23:22:00,16.8,15.1,30.54,East,89,1.0,1.0,93,0.00,,---,0.03,VWS V14.01,2013-01-16 07:22:00,
2013-01-15 23:27:00,16.5,14.8,30.54,East,89,0.0,1.0,93,0.00,,---,0.03,VWS V14.01,2013-01-16 07:27:00,
2013-01-15 23:32:00,16.2,14.3,30.54,East,89,0.0,2.0,92,0.00,,---,0.03,VWS V14.01,2013-01-16 07:32:00,
2013-01-15 23:37:00,15.8,13.9,30.54,East,89,0.0,2.0,92,0.00,,---,0.03,VWS V14.01,2013-01-16 07:37:00,
2013-01-15 23:42:00,15.5,13.6,30.54,East,89,0.0,2.0,92,0.00,,---,0.03,VWS V14.01,2013-01-16 07:42:00,
2013-01-15 23:47:00,15.3,13.4,30.54,East,89,0.0,2.0,92,0.00,,---,0.03,VWS V14.01,2013-01-16 07:47:00,
2013-01-15 23:52:00,15.2,13.3,30.55,East,89,0.0,2.0,92,0.00,,---,0.03,VWS V14.01,2013-01-16 07:52:00,
2013-01-15 23:57:00,15.1,13.4,30.54,East,89,0.0,2.0,93,0.00,,---,0.03,VWS V14.01,2013-01-16 07:57:00,